(30792) = 1988 RP12

Discovered at Cerro Tololo on 1988-09-14 by S. J. Bus.

Orbit

Orbit type: Jupiter Trojan

Note: WebGL enabled browser required.

epoch2023-09-13.0
epoch JD2460200.5
perihelion date2020-03-05.51998
perihelion JD2458914.01998
argument of perihelion (°)64.88200
ascending node (°)157.45912
inclination (°)4.36270
eccentricity0.0347764
perihelion distance (AU)5.0439469
Tisserand w.r.t. Jupiter3.0
ΔV w.r.t. Earth (km/sec)12.5
semimajor axis (AU)5.2256773
mean anomaly (°)106.14340
mean daily motion (°/day)0.08250680
aphelion distance (AU)5.407
period (years)11.95
P-vector [x]-0.73814227
P-vector [y]-0.64313802
P-vector [z]-0.20376331
Q-vector [x]0.67401457
Q-vector [y]-0.68995717
Q-vector [z]-0.26393838
absolute magnitude12.47
phase slope0.15
uncertainty0
referenceMPEC 2024-A48
observations used966
oppositions23
arc length (days)12836
first opposition used1988
last opposition used2023
residual rms (arc-secs)0.75
perturbers coarse indicatorM-v
perturbers precise indicator003Ek
first observation date used1988-09-14.0
last observation date used2023-11-06.0
computer nameMPCLINUX
JD of orbit computation2456966.925978
perihelion JD uncertainty (days)9.5183E-04
argument of perihelion uncertainty (°)9.9623E-05
ascending node uncertainty (°)6.6999E-05
inclination uncertainty (°)5.2210E-06
eccentricity uncertainty 5.2502E-08
perihelion distance uncertainty (AU)2.8352E-07
Minimum Orbit Intersection Distances (in AU)
for orbit epoch: 2460200.5, reference: E2024-A48
Mercury4.59103
Venus4.3211
Earth4.03738
Mars3.43172
Jupiter0.24524
Saturn3.70462
Uranus13.3076
Neptune24.4376

Observations

985 total observations over interval: 1988 09 14.15764 – 2023 11 06.262023
These data are available for download (format description).

Date (UT) J2000 RA J2000 Dec Magn Location Ref
1988 09 14.15764 23 51 27.34 -02 46 33.2 19.8 V 807 – Cerro Tololo Observatory, La Serena MPC 15346
1988 09 15.24653 23 50 57.23 -02 50 19.8   807 – Cerro Tololo Observatory, La Serena MPC 15346
1988 09 16.27153 23 50 28.92 -02 53 53.2   807 – Cerro Tololo Observatory, La Serena MPC 15346
1988 10 04.11667 23 42 24.07 -03 53 13.1   807 – Cerro Tololo Observatory, La Serena MPC 15346
1988 10 05.09306 23 41 59.28 -03 56 12.7   807 – Cerro Tololo Observatory, La Serena MPC 15346
1988 10 08.13611 23 40 43.58 -04 05 15.7   807 – Cerro Tololo Observatory, La Serena MPC 15346
1988 11 03.15486 23 32 55.42 -05 00 06.0   807 – Cerro Tololo Observatory, La Serena MPC 15346
1988 11 06.09722 23 32 27.76 -05 03 17.4   807 – Cerro Tololo Observatory, La Serena MPC 15346
1989 10 04.29583 01 53 55.21 +07 27 11.3   807 – Cerro Tololo Observatory, La Serena MPC 15632
1989 10 30.19097 01 41 43.67 +06 09 24.6   807 – Cerro Tololo Observatory, La Serena MPC 15632
1989 11 01.17292 01 40 48.43 +06 03 56.0   807 – Cerro Tololo Observatory, La Serena MPC 15632
1996 05 19.14375 14 45 13.46 -10 43 17.1 19.0   809 – European Southern Observatory, La Silla MPC 28036
1996 05 19.15694 14 45 13.10 -10 43 14.7   809 – European Southern Observatory, La Silla MPC 28036
1996 05 19.17014 14 45 12.71 -10 43 13.0   809 – European Southern Observatory, La Silla MPC 28036
2000 09 06.13655 00 02 53.90 -01 37 39.1   950 – La Palma MPS 169484
2000 09 06.14366 00 02 53.74 -01 37 40.4   950 – La Palma MPS 169484
2000 09 06.14628 00 02 53.68 -01 37 40.8   950 – La Palma MPS 169484
2000 09 06.14730 00 02 53.65 -01 37 41.1   950 – La Palma MPS 169484
2000 09 06.14890 00 02 53.58 -01 37 41.6 19.8 V 950 – La Palma MPS 169484
2000 09 06.15212 00 02 53.49 -01 37 42.2   950 – La Palma MPS 169484
2000 09 07.10780 00 02 28.97 -01 40 53.4   950 – La Palma MPS 169484
2000 09 07.11581 00 02 28.80 -01 40 54.6   950 – La Palma MPS 169484
2000 09 07.11861 00 02 28.74 -01 40 55.1   950 – La Palma MPS 169484
2000 09 07.11963 00 02 28.68 -01 40 55.3   950 – La Palma MPS 169484
2000 09 07.12145 00 02 28.61 -01 40 55.9 19.8 V 950 – La Palma MPS 169484
2000 09 07.12512 00 02 28.51 -01 40 56.7   950 – La Palma MPS 169484
2000 09 24.33002 23 54 40.32 -02 39 59.1 19.1   704 – Lincoln Laboratory ETS, New Mexico MPS 18844
2000 09 24.36014 23 54 39.49 -02 40 04.6 19.5   704 – Lincoln Laboratory ETS, New Mexico MPS 18844
2000 09 24.37512 23 54 39.01 -02 40 07.6 19.5   704 – Lincoln Laboratory ETS, New Mexico MPS 18844
2000 09 24.39011 23 54 38.60 -02 40 11.2 19.4   704 – Lincoln Laboratory ETS, New Mexico MPS 18844
2000 10 01.17351 23 51 33.28 -03 02 47.8 19.1   704 – Lincoln Laboratory ETS, New Mexico MPS 18844
2000 10 01.18879 23 51 32.85 -03 02 51.1 19.3   704 – Lincoln Laboratory ETS, New Mexico MPS 18844
2000 10 01.20387 23 51 32.43 -03 02 53.8 19.2   704 – Lincoln Laboratory ETS, New Mexico MPS 18844
2000 10 01.21502 23 51 32.12 -03 02 56.1 19.2 R 699 – Lowell Observatory-LONEOS MPS 20616
2000 10 01.21895 23 51 32.06 -03 02 56.5 19.4   704 – Lincoln Laboratory ETS, New Mexico MPS 18844
2000 10 01.23403 23 51 31.62 -03 02 58.9 19.4   704 – Lincoln Laboratory ETS, New Mexico MPS 18844
2000 10 01.23432 23 51 31.57 -03 02 59.1   699 – Lowell Observatory-LONEOS MPS 20616
2000 10 01.25366 23 51 31.10 -03 03 02.4   699 – Lowell Observatory-LONEOS MPS 20616
2000 10 01.27298 23 51 30.58 -03 03 06.6   699 – Lowell Observatory-LONEOS MPS 20616
2000 10 02.31314 23 51 02.78 -03 06 26.2 19.8   704 – Lincoln Laboratory ETS, New Mexico MPS 18844
2000 10 02.32929 23 51 02.33 -03 06 30.6 19.6   704 – Lincoln Laboratory ETS, New Mexico MPS 18844
2000 10 02.34480 23 51 02.01 -03 06 33.3 19.8   704 – Lincoln Laboratory ETS, New Mexico MPS 18844
2000 10 02.36042 23 51 01.53 -03 06 37.2 19.8   704 – Lincoln Laboratory ETS, New Mexico MPS 18844
2001 09 19.39162 02 07 04.33 +08 43 33.8 19.2   704 – Lincoln Laboratory ETS, New Mexico MPS 35296
2001 09 19.40587 02 07 04.08 +08 43 30.9 19.8   704 – Lincoln Laboratory ETS, New Mexico MPS 35296
2001 09 19.42012 02 07 03.80 +08 43 28.9 19.8   704 – Lincoln Laboratory ETS, New Mexico MPS 35296
2001 09 19.43442 02 07 03.49 +08 43 26.5 19.8   704 – Lincoln Laboratory ETS, New Mexico MPS 35296
2001 09 19.44869 02 07 03.20 +08 43 24.7 19.6   704 – Lincoln Laboratory ETS, New Mexico MPS 35296
2001 09 21.40998 02 06 25.94 +08 38 34.0 19.1   704 – Lincoln Laboratory ETS, New Mexico MPS 35296
2001 09 21.42422 02 06 25.62 +08 38 32.0 19.4   704 – Lincoln Laboratory ETS, New Mexico MPS 35296
2001 09 21.43847 02 06 25.35 +08 38 29.6 19.7   704 – Lincoln Laboratory ETS, New Mexico MPS 35296
2001 09 21.46699 02 06 24.78 +08 38 25.1 19.7   704 – Lincoln Laboratory ETS, New Mexico MPS 35296
2001 10 17.26610 01 55 36.71 +07 24 35.5 20.0   704 – Lincoln Laboratory ETS, New Mexico MPS 37355
2001 10 17.28208 01 55 36.26 +07 24 32.2 19.9   704 – Lincoln Laboratory ETS, New Mexico MPS 37355
2001 10 17.29806 01 55 35.70 +07 24 29.8 19.6   704 – Lincoln Laboratory ETS, New Mexico MPS 37355
2001 10 17.31441 01 55 35.32 +07 24 27.1 20.1   704 – Lincoln Laboratory ETS, New Mexico MPS 37355
2001 10 21.24195 01 53 41.63 +07 12 38.1 19.3   704 – Lincoln Laboratory ETS, New Mexico MPS 38764
2001 10 21.24220 01 53 41.60 +07 12 38.0 19.3   704 – Lincoln Laboratory ETS, New Mexico MPS 38764
2001 10 21.24245 01 53 41.66 +07 12 37.6 19.6   704 – Lincoln Laboratory ETS, New Mexico MPS 38764
2001 10 21.24270 01 53 41.60 +07 12 39.7 19.3   704 – Lincoln Laboratory ETS, New Mexico MPS 38764
2001 10 21.26848 01 53 40.88 +07 12 32.9 19.5   704 – Lincoln Laboratory ETS, New Mexico MPS 38764
2001 10 21.26872 01 53 40.80 +07 12 34.1 19.8   704 – Lincoln Laboratory ETS, New Mexico MPS 38764
2001 10 21.26897 01 53 40.84 +07 12 33.7 19.6   704 – Lincoln Laboratory ETS, New Mexico MPS 38764
2001 10 21.26922 01 53 40.95 +07 12 34.5 19.8   704 – Lincoln Laboratory ETS, New Mexico MPS 38764
2001 10 21.28593 01 53 40.34 +07 12 29.4 19.3   704 – Lincoln Laboratory ETS, New Mexico MPS 38764
2001 10 21.28618 01 53 40.35 +07 12 30.1 19.8   704 – Lincoln Laboratory ETS, New Mexico MPS 38764
2001 10 21.28643 01 53 40.35 +07 12 30.6 19.5   704 – Lincoln Laboratory ETS, New Mexico MPS 38764
2001 10 21.28668 01 53 40.42 +07 12 30.9 19.8   704 – Lincoln Laboratory ETS, New Mexico MPS 38764
2001 10 21.30253 01 53 39.81 +07 12 26.5 19.8   704 – Lincoln Laboratory ETS, New Mexico MPS 38764
2001 10 21.30278 01 53 39.79 +07 12 26.8 19.5   704 – Lincoln Laboratory ETS, New Mexico MPS 38764
2001 10 21.30303 01 53 39.83 +07 12 26.7 19.4   704 – Lincoln Laboratory ETS, New Mexico MPS 38764
2001 10 21.30328 01 53 39.90 +07 12 29.6 19.5   704 – Lincoln Laboratory ETS, New Mexico MPS 38764
2001 10 21.31896 01 53 39.38 +07 12 24.2 19.8   704 – Lincoln Laboratory ETS, New Mexico MPS 38764
2001 10 21.31922 01 53 39.28 +07 12 23.7 19.7   704 – Lincoln Laboratory ETS, New Mexico MPS 38764
2001 10 21.31947 01 53 39.32 +07 12 23.9 19.7   704 – Lincoln Laboratory ETS, New Mexico MPS 38764
2001 10 21.31972 01 53 39.40 +07 12 25.7 19.8   704 – Lincoln Laboratory ETS, New Mexico MPS 38764
2001 10 23.26755 01 52 42.67 +07 06 37.8 19.2   704 – Lincoln Laboratory ETS, New Mexico MPS 38764
2001 10 23.28395 01 52 42.22 +07 06 33.9 19.3   704 – Lincoln Laboratory ETS, New Mexico MPS 38764
2001 10 23.30036 01 52 41.67 +07 06 31.1 19.5   704 – Lincoln Laboratory ETS, New Mexico MPS 38764
2001 10 23.31677 01 52 41.23 +07 06 29.1 19.7   704 – Lincoln Laboratory ETS, New Mexico MPS 38764
2001 10 23.33319 01 52 40.71 +07 06 25.7 19.5   704 – Lincoln Laboratory ETS, New Mexico MPS 38764
2001 10 24.25198 01 52 14.05 +07 03 42.5 19.1   704 – Lincoln Laboratory ETS, New Mexico MPS 38764
2001 10 24.26851 01 52 13.58 +07 03 40.8 19.1   704 – Lincoln Laboratory ETS, New Mexico MPS 38764
2001 10 24.28506 01 52 13.03 +07 03 37.0 19.4   704 – Lincoln Laboratory ETS, New Mexico MPS 38764
2001 10 24.31815 01 52 12.13 +07 03 31.4 19.5   704 – Lincoln Laboratory ETS, New Mexico MPS 38765
2001 10 25.23609 01 51 45.49 +07 00 49.1 19.2   704 – Lincoln Laboratory ETS, New Mexico MPS 38765
2001 10 25.25274 01 51 44.96 +07 00 46.1 19.1   704 – Lincoln Laboratory ETS, New Mexico MPS 38765
